Regional Weather Roundup
Issued by NWS

Home | Current Version | Previous Version | Graphics & Text | Print | Product List | Glossary On
Versions: 1 2 3 4 5 6 7 8 9 10 11 12 13 14 15 16 17 18 19 20 21 22 23 24 25 26 27 28 29 30 31 32 33 34 35 36 37 38 39 40 41 42 43 44 45 46 47 48 49 50
000
ASUS43 KLSX 031657
RWRMO

WEATHER SUMMARY FOR MISSOURI
NATIONAL WEATHER SERVICE SPRINGFIELD MO
1200 PM CDT TUE MAY 03 2016

NOTE: "FAIR" INDICATES FEW OR NO CLOUDS BELOW 12,000 FEET WITH NO
       SIGNIFICANT WEATHER AND/OR OBSTRUCTIONS TO VISIBILITY.
       CURRENT SKY AND/OR WEATHER CONDITIONS ARE NOT AVAILABLE FOR
       CHILLICOTHE AND FARMINGTON.

MOZ001>031-035>038-043-044-053-054-031800-
...NORTHERN AND WESTERN MISSOURI...

CITY           SKY/WX    TMP DP  RH WIND       PRES   REMARKS
KANSAS CTY INT MOSUNNY   64  43  46 W5        30.07F
LEE`S SUMMIT   MOSUNNY   65  42  43 MISG      30.08F
ST JOSEPH      MOSUNNY   64  41  42 SW5       30.07F
CHILLICOTHE      N/A     65  50  58 VRB7      30.06F

$$
MOZ066>068-077>081-088>096-101>105-031800-
...SOUTHWEST MISSOURI...

CITY           SKY/WX    TMP DP  RH WIND       PRES   REMARKS
SPRINGFIELD    MOSUNNY   62  43  49 N9        30.09F
JOPLIN         SUNNY     64  44  48 N7        30.11F
BRANSON        PTSUNNY   59  41  51 N12       30.10F

$$
MOZ032>034-039>042-045>050-055>058-069>072-031800-
...CENTRAL MISSOURI...

CITY           SKY/WX    TMP DP  RH WIND       PRES   REMARKS
COLUMBIA       NOT AVBL
JEFFERSON CITY PTSUNNY   60  46  59 VRB3      30.06F
ROLLA          MOSUNNY   58  46  64 MISG      30.05F
SEDALIA        SUNNY     63  45  51 NW8       30.08F

$$
MOZ051-052-059>065-031800-
...EAST CENTRAL MISSOURI...

CITY           SKY/WX    TMP DP  RH WIND       PRES   REMARKS
ST LOUIS INTL  PTSUNNY   62  44  51 NW10      30.03F

$$
MOZ072>076-082>087-097>100-106>115-031800-
...SOUTH CENTRAL AND SOUTHEAST MISSOURI...

CITY           SKY/WX    TMP DP  RH WIND       PRES   REMARKS
CAPE GIRARDEAU CLOUDY    60  48  64 N7        30.03S
POPLAR BLUFF   CLOUDY    60  47  61 NW5       30.04F
WEST PLAINS    PTSUNNY   60  41  49 N9        30.07S

$$



USA.gov is the U.S. government's official web portal to all federal, state and local government web resources and services.